UAL97 KSFO-EDDF

Flight info

Callsign UAL97
Flight time N/A
Altitude 33000
Route SNTNA2 MOGEE Q122 LCU DCT DDY DCT FSD DCT GRB/N0494F350 DCT NOTAP DCT ROSVO DCT BAREE N699A NEEKO/M084F350 DCT 54N050W 55N040W 56N030W 56N020W DCT RESNO/N0483F350 DCT NETKI DCT CON/N0482F370 DCT DEXEN UY124 DOLOP DCT KEPAD L15 FINMA DCT CHT DCT ITVIP DCT KONAN UL607 SPI T180 NIVNU T847 IMCOM IMCOM1A
Aircraft B77W/H-SDE1E2E3FGHIJ2J3J4J5M1RWXY/LB1D1

Departure

Time 2026-05-07 04:41
Airport San Francisco International Airport (KSFO)

Arrival

Time N/A
Airport Frankfurt Main Airport (EDDF)
Time Latitude Longitude Altitude Speed Heading
2026-05-07 03:48 37.61110 -122.38683 38 ft 0 kts 118°
2026-05-07 04:23 37.61109 -122.38683 38 ft 0 kts 118°
2026-05-07 04:24 37.61109 -122.38682 38 ft 0 kts 118°
2026-05-07 04:24 37.61110 -122.38683 38 ft 0 kts 118°
2026-05-07 04:24 37.61116 -122.38698 38 ft 3 kts 118°
2026-05-07 04:24 37.61127 -122.38724 38 ft 3 kts 125°
2026-05-07 04:25 37.61140 -122.38741 38 ft 2 kts 150°
2026-05-07 04:25 37.61148 -122.38745 38 ft 0 kts 182°
2026-05-07 04:25 37.61152 -122.38744 38 ft 0 kts 201°
2026-05-07 04:25 37.61160 -122.38740 38 ft 2 kts 210°
2026-05-07 04:26 37.61165 -122.38737 38 ft 0 kts 210°
2026-05-07 04:29 37.61163 -122.38738 38 ft 1 kts 210°
2026-05-07 04:29 37.61136 -122.38757 38 ft 7 kts 208°
2026-05-07 04:29 37.61079 -122.38796 38 ft 11 kts 208°
2026-05-07 04:30 37.61015 -122.38839 38 ft 9 kts 208°
2026-05-07 04:30 37.60956 -122.38867 36 ft 9 kts 180°
2026-05-07 04:30 37.60912 -122.38825 36 ft 8 kts 121°
2026-05-07 04:30 37.60885 -122.38765 37 ft 8 kts 118°
2026-05-07 04:31 37.60856 -122.38696 38 ft 9 kts 118°
2026-05-07 04:31 37.60847 -122.38675 38 ft 0 kts 118°
2026-05-07 04:31 37.60842 -122.38663 38 ft 4 kts 118°
2026-05-07 04:32 37.60820 -122.38612 38 ft 9 kts 117°
2026-05-07 04:32 37.60783 -122.38520 38 ft 12 kts 116°
2026-05-07 04:32 37.60811 -122.38438 37 ft 10 kts 32°
2026-05-07 04:32 37.60872 -122.38393 38 ft 11 kts 29°
2026-05-07 04:33 37.60943 -122.38347 38 ft 12 kts 27°
2026-05-07 04:33 37.61021 -122.38296 38 ft 13 kts 28°
2026-05-07 04:33 37.61106 -122.38240 38 ft 14 kts 27°
2026-05-07 04:33 37.61196 -122.38179 38 ft 15 kts 28°
2026-05-07 04:34 37.61294 -122.38114 38 ft 16 kts 28°
2026-05-07 04:34 37.61398 -122.38045 38 ft 17 kts 27°
2026-05-07 04:34 37.61507 -122.37974 37 ft 17 kts 28°
2026-05-07 04:34 37.61610 -122.37905 36 ft 16 kts 28°
2026-05-07 04:35 37.61665 -122.37813 34 ft 13 kts 91°
2026-05-07 04:35 37.61655 -122.37694 32 ft 15 kts 97°
2026-05-07 04:35 37.61641 -122.37540 26 ft 19 kts 97°
2026-05-07 04:35 37.61624 -122.37373 22 ft 18 kts 97°
2026-05-07 04:36 37.61596 -122.37221 21 ft 15 kts 116°
2026-05-07 04:36 37.61546 -122.37100 18 ft 15 kts 118°
2026-05-07 04:36 37.61499 -122.36991 18 ft 13 kts 118°
2026-05-07 04:36 37.61450 -122.36898 18 ft 12 kts 135°
2026-05-07 04:37 37.61395 -122.36827 18 ft 11 kts 134°
2026-05-07 04:37 37.61350 -122.36746 18 ft 12 kts 119°
2026-05-07 04:37 37.61308 -122.36646 18 ft 13 kts 118°
2026-05-07 04:37 37.61259 -122.36529 17 ft 17 kts 117°
2026-05-07 04:38 37.61199 -122.36382 16 ft 20 kts 119°
2026-05-07 04:38 37.61135 -122.36236 15 ft 14 kts 117°
2026-05-07 04:38 37.61093 -122.36133 15 ft 12 kts 116°
2026-05-07 04:38 37.61065 -122.36062 15 ft 8 kts 117°
2026-05-07 04:39 37.61049 -122.35992 15 ft 8 kts 88°
2026-05-07 04:39 37.61078 -122.35926 15 ft 8 kts 46°
2026-05-07 04:39 37.61114 -122.35895 15 ft 4 kts 31°
2026-05-07 04:39 37.61142 -122.35874 15 ft 5 kts 31°
2026-05-07 04:40 37.61188 -122.35886 15 ft 10 kts 315°
2026-05-07 04:40 37.61206 -122.35919 15 ft 0 kts 299°
2026-05-07 04:40 37.61238 -122.35992 15 ft 35 kts 299°
2026-05-07 04:41 37.61435 -122.36465 18 ft 96 kts 297°
2026-05-07 04:41 37.61807 -122.37354 22 ft 150 kts 297°
2026-05-07 04:41 37.62322 -122.38581 193 ft 182 kts 297°
2026-05-07 04:41 37.62881 -122.39932 941 ft 182 kts 298°
2026-05-07 04:42 37.63480 -122.41354 1528 ft 189 kts 298°
2026-05-07 04:42 37.64107 -122.42863 1884 ft 204 kts 298°
2026-05-07 04:42 37.64793 -122.44485 2310 ft 217 kts 299°
2026-05-07 04:42 37.65506 -122.46189 2714 ft 232 kts 300°
2026-05-07 04:43 37.66319 -122.48056 3116 ft 251 kts 301°
2026-05-07 04:43 37.67175 -122.49979 3803 ft 257 kts 301°
2026-05-07 04:43 37.68224 -122.51770 4605 ft 257 kts 319°
2026-05-07 04:43 37.69743 -122.52917 5281 ft 260 kts 343°
2026-05-07 04:44 37.71557 -122.53213 5908 ft 267 kts
2026-05-07 04:44 37.73310 -122.52752 6649 ft 267 kts
2026-05-07 04:44 37.75155 -122.52610 7319 ft 271 kts 358°
2026-05-07 04:44 37.77064 -122.52679 7959 ft 276 kts 358°
2026-05-07 04:45 37.78888 -122.52609 8567 ft 280 kts 13°
2026-05-07 04:45 37.80701 -122.51617 9141 ft 286 kts 38°
2026-05-07 04:45 37.82012 -122.49710 9779 ft 289 kts 63°
2026-05-07 04:45 37.82668 -122.47454 10338 ft 295 kts 72°
2026-05-07 04:46 37.83313 -122.45057 10686 ft 309 kts 69°
2026-05-07 04:46 37.84158 -122.42645 11002 ft 324 kts 60°
2026-05-07 04:46 37.85343 -122.40139 11399 ft 338 kts 58°
2026-05-07 04:46 37.86631 -122.37505 11803 ft 353 kts 58°
2026-05-07 04:47 37.87949 -122.34796 12206 ft 368 kts 59°
2026-05-07 04:47 37.89315 -122.31976 12638 ft 381 kts 59°
2026-05-07 04:47 37.90711 -122.29088 13144 ft 391 kts 59°
2026-05-07 04:47 37.92150 -122.26106 13813 ft 396 kts 59°
2026-05-07 04:48 37.93598 -122.23103 14539 ft 399 kts 59°
2026-05-07 04:48 37.95055 -122.20077 15256 ft 403 kts 58°
2026-05-07 04:48 37.96522 -122.17030 15961 ft 407 kts 58°
2026-05-07 04:48 37.98002 -122.13951 16671 ft 410 kts 58°
2026-05-07 04:49 37.99489 -122.10855 17378 ft 412 kts 58°
2026-05-07 04:49 38.01002 -122.07701 18053 ft 416 kts 58°
2026-05-07 04:49 38.02526 -122.04520 18734 ft 419 kts 58°
2026-05-07 04:49 38.04065 -122.01307 19430 ft 421 kts 58°
2026-05-07 04:50 38.05502 -121.98303 19980 ft 426 kts 58°
2026-05-07 04:50 38.06863 -121.95455 20475 ft 430 kts 58°
2026-05-07 04:50 38.08424 -121.92186 21088 ft 434 kts 57°
2026-05-07 04:50 38.09976 -121.88933 21745 ft 435 kts 57°
2026-05-07 04:51 38.11568 -121.85593 22299 ft 440 kts 57°
2026-05-07 04:51 38.13055 -121.82469 22758 ft 444 kts 57°
2026-05-07 04:51 38.14685 -121.79041 23317 ft 448 kts 57°
2026-05-07 04:51 38.16348 -121.75540 23914 ft 450 kts 57°
2026-05-07 04:52 38.18000 -121.72058 24433 ft 454 kts 57°
2026-05-07 04:52 38.19590 -121.68706 24922 ft 458 kts 57°
2026-05-07 04:52 38.21291 -121.65114 25436 ft 462 kts 57°
2026-05-07 04:52 38.23069 -121.61353 25972 ft 466 kts 57°
2026-05-07 04:53 38.24717 -121.57865 26455 ft 469 kts 57°
2026-05-07 04:53 38.26418 -121.54263 26945 ft 472 kts 57°
2026-05-07 04:53 38.28067 -121.50764 27384 ft 476 kts 57°
2026-05-07 04:53 38.29766 -121.47156 27843 ft 479 kts 56°
2026-05-07 04:54 38.31471 -121.43531 28286 ft 483 kts 56°
2026-05-07 04:54 38.33223 -121.39830 28711 ft 486 kts 54°
2026-05-07 04:54 38.35216 -121.36340 29130 ft 487 kts 49°
2026-05-07 04:54 38.37317 -121.32956 29626 ft 488 kts 50°
2026-05-07 04:55 38.39407 -121.29599 30252 ft 486 kts 49°
2026-05-07 04:55 38.41517 -121.26203 30989 ft 482 kts 49°
2026-05-07 04:55 38.43576 -121.22884 31613 ft 479 kts 49°
2026-05-07 04:55 38.45631 -121.19567 32092 ft 480 kts 49°
2026-05-07 04:56 38.47674 -121.16265 32436 ft 482 kts 49°
2026-05-07 04:56 38.49754 -121.12899 32870 ft 482 kts 49°
2026-05-07 04:56 38.51822 -121.09547 33074 ft 484 kts 49°
2026-05-07 04:56 38.53902 -121.06172 33088 ft 483 kts 49°
2026-05-07 04:57 38.58031 -120.99458 33085 ft 480 kts 49°
2026-05-07 04:57 38.62150 -120.92748 33128 ft 480 kts 49°
2026-05-07 04:58 38.66299 -120.85973 33199 ft 481 kts 49°
2026-05-07 04:58 38.70419 -120.79231 33207 ft 478 kts 49°
2026-05-07 04:59 38.74536 -120.72480 33193 ft 477 kts 49°
2026-05-07 04:59 38.78621 -120.65768 33187 ft 480 kts 49°
2026-05-07 05:00 38.82707 -120.59040 33205 ft 480 kts 49°
2026-05-07 05:00 38.86811 -120.52268 33221 ft 475 kts 49°
2026-05-07 05:01 38.90849 -120.45591 33273 ft 479 kts 49°
2026-05-07 05:01 38.94925 -120.38836 33294 ft 476 kts 49°
2026-05-07 05:02 38.98995 -120.32078 33315 ft 474 kts 50°
2026-05-07 05:02 39.03005 -120.25405 33332 ft 477 kts 50°
2026-05-07 05:03 39.06979 -120.18778 33297 ft 476 kts 49°
2026-05-07 05:03 39.11024 -120.12019 33329 ft 474 kts 49°
2026-05-07 05:04 39.14996 -120.05368 33297 ft 474 kts 50°
2026-05-07 05:04 39.19004 -119.98642 33276 ft 474 kts 49°
2026-05-07 05:05 39.23018 -119.91893 33227 ft 474 kts 50°
2026-05-07 05:05 39.27004 -119.85175 33190 ft 472 kts 50°
2026-05-07 05:06 39.30999 -119.78429 33187 ft 471 kts 50°
2026-05-07 05:06 39.34952 -119.71741 33189 ft 473 kts 50°
2026-05-07 05:07 39.38922 -119.65009 33192 ft 472 kts 50°
2026-05-07 05:07 39.42889 -119.58266 33175 ft 470 kts 50°
2026-05-07 05:08 39.46831 -119.51553 33175 ft 472 kts 50°
2026-05-07 05:08 39.50794 -119.44791 33229 ft 469 kts 50°
2026-05-07 05:09 39.54720 -119.38076 33264 ft 468 kts 50°
2026-05-07 05:09 39.58659 -119.31325 33263 ft 468 kts 50°
2026-05-07 05:10 39.62572 -119.24605 33278 ft 469 kts 50°
2026-05-07 05:10 39.66498 -119.17847 33258 ft 468 kts 50°
2026-05-07 05:11 39.70392 -119.11131 33245 ft 469 kts 50°
2026-05-07 05:11 39.74302 -119.04372 33237 ft 469 kts 50°
2026-05-07 05:12 39.78210 -118.97602 33232 ft 467 kts 50°
2026-05-07 05:12 39.82113 -118.90829 33234 ft 469 kts 50°
2026-05-07 05:13 39.85988 -118.84087 33240 ft 467 kts 50°
2026-05-07 05:13 39.89525 -118.77007 33233 ft 471 kts 58°
2026-05-07 05:14 39.92605 -118.69518 33156 ft 472 kts 58°
2026-05-07 05:14 39.95684 -118.61977 33160 ft 473 kts 58°
2026-05-07 05:15 39.98743 -118.54464 33144 ft 471 kts 58°
2026-05-07 05:15 40.01817 -118.46889 33125 ft 472 kts 58°
2026-05-07 05:16 40.04865 -118.39359 33136 ft 472 kts 58°
2026-05-07 05:16 40.07939 -118.31739 33167 ft 473 kts 59°
2026-05-07 05:17 40.11005 -118.24126 33241 ft 473 kts 59°
2026-05-07 05:17 40.14075 -118.16476 33260 ft 472 kts 59°